Flag for U.S.A. Weather past 2 weeks in Escondido, California, U.S.A.

Now
40 °F

Clear.


Feels Like: 40 °F
Forecast: 47 / 76 °F
Wind: No wind

Location: Ramona Airport

Current Time: Apr 19, 2015 at 5:55:40 AM

Latest Report: Apr 19, 2015 at 4:53 AM


Visibility: 10 mi

Pressure: 29.93 "Hg

Humidity: 73%

Dew point: 32 °F

Location of EscondidoLocation

Historic Weather in Escondido — Graph

°F

Escondido temperature yesterday

Maximum temperature yesterday: 80 °F (at 1:53 PM)
Minimum temperature yesterday: 38 °F (at 5:53 AM)
Average temperature yesterday: 60 °F

Past Weeks' High & Low Weather Summary

 TemperatureHumidityPressure
High82 °F (Apr 17, 12:53 PM)97% (Apr 13, 3:53 AM)30.09 "Hg (Apr 13, 3:53 AM)
Low38 °F (Apr 9, 4:53 AM)4% (Apr 16, 12:53 PM)29.84 "Hg (Apr 5, 3:53 PM)
Average57 °F55%29.96 "Hg
* Reported Apr 4 4:53 AM — Apr 19 4:53 AM, Escondido, Weather by CustomWeather, © 2015

Note: Actual official high and low records may vary slightly from our data, if they occured in-between our weather recording intervals... More about our weather records

Advertising

Escondido weather history for previous 24 hours

 ConditionsComfort  
Time TempWeatherWind HumidityBarometerVisibility
4:53 AM
Sun, Apr 19
40 °FClear.No wind73%29.93 "Hg10 mi
3:53 AM42 °FClear.No wind71%29.93 "Hg10 mi
2:53 AM44 °FClear.No wind65%29.93 "Hg10 mi
1:53 AM46 °FClear.No wind66%29.94 "Hg10 mi
12:53 AM47 °FClear.No wind64%29.96 "Hg10 mi
11:53 PM
Sat, Apr 18
48 °FClear.3 mph61%29.96 "Hg10 mi
10:53 PM51 °FClear.No wind59%29.96 "Hg10 mi
9:53 PM54 °FClear.6 mph55%29.96 "Hg10 mi
8:53 PM58 °FClear.No wind47%29.95 "Hg10 mi
7:53 PM57 °FSunny.6 mph51%29.94 "Hg10 mi
6:53 PM67 °FSunny.6 mph37%29.94 "Hg10 mi
5:53 PM72 °FSunny.9 mph23%29.94 "Hg10 mi
4:53 PM76 °FSunny.12 mph14%29.93 "Hg10 mi
3:53 PM77 °FSunny.15 mph14%29.93 "Hg10 mi
2:53 PM79 °FSunny.12 mph14%29.94 "Hg10 mi
1:53 PM80 °FSunny.12 mph12%29.96 "Hg10 mi
12:53 PM79 °FSunny.9 mph16%29.97 "Hg10 mi
11:53 AM78 °FSunny.10 mph12%29.99 "Hg10 mi
10:53 AM76 °FSunny.8 mph13%30.01 "Hg10 mi
9:53 AM74 °FSunny.5 mph11%30.00 "Hg10 mi
8:53 AM67 °FSunny.No wind19%30.01 "Hg10 mi
7:53 AM55 °FSunny.No wind33%30.02 "Hg10 mi
6:53 AM41 °FClear.No wind58%30.02 "Hg10 mi
5:53 AM38 °FClear.No wind63%30.01 "Hg10 mi
Weather by CustomWeather, © 2015

See weather overviewHow to use our weather pages